Location: Charbonni�res
(45.9952°N, 2.9982°E)
Time: 18:14:21
(UTC+00:00)

SAR-Lupe-4 - Pass Details

Date: 29 November 2020
Orbit: 481 x 484 km, 98.2° (Epoch: 09 January)

Event Time Altitude Azimuth Distance (km) Brightness Sun altitude
Rises 05:16:45 0° 178° (S) 2,529 7.4 -18.6°
Reaches altitude 10° 05:18:52 10° 185° (S) 1,655 6.3 -18.3°
Maximum altitude 05:22:18 46° 260° (W) 657 3.8 -17.7°
Enters shadow 05:22:33 45° 274° (W) 668 3.8 -17.7°
